User: anonymous   Login
Location: Unspecified
(0.0000°N, 0.0000°E)
Time: 01:32:08
(UTC+01:00)
Language:

Cosmos 1536 - Orbit

View from above orbital plane
View from above orbital plane
View from above satellite
View from above satellite

Ground track
Ground track

The orbit data is extracted from the following two-line orbital elements,

1 14699U 84013A   17344.96388213  .00000852  00000-0  57668-4 0  9995
2 14699  82.5241 158.3739 0012765 166.1406 194.0174 15.05200831839689
Epoch (UTC): 10 December 2017 23:07:59
Eccentricity: 0.0012765
inclination: 82.5241°
perigee height: 542 km
apogee height: 560 km
right ascension of ascending node: 158.3739°
argument of perigee: 166.1406°
revolutions per day: 15.05200831
mean anomaly at epoch: 194.0174°
orbit number at epoch: 83968

The dashed part of the orbit path shows where the satellite is in the earth's shadow,  

DLR